DIAMANT B-P4 DEB, 7659

Orbit data source: Space-Track

DIAMANT B-P4 DEB, 7659 is space debris in LEO originally from a launch on Thu, 06 Feb 1975 UTC launched from the French Guiana (FRGUI). Debris objects in space refer to the collection of defunct objects orbiting the Earth. Examples of debris include non-operational satellites, rocket bodies, and fragments generated from explosions, collisions, or faulty payload assembly.

Loading next visibility...
Identifier
7659, 1975-010E
Orbit
LEO
Country
Flag of FRFR
Related business
Manufacturer
Unknown
Mission
Spacecraft
Bus & Motor
Unknown
Mass
Unknown
Launch date (UTC)
1975-02-06 (51 years ago)
Launch vehicle
Unknown
Launch site
French Guiana (FRGUI)
Object type
Payload
Rocket body
Debris
Shape & HBR
Unknown shape, 0.3 m
Radar Cross Section
Medium (>0.1 m² and <1 m²)

Expand to show TLE details & history
Last TLE update: 18 hours ago

TLE from 18 hours ago
0 DIAMANT B-P4 DEB
1 07659U 75010E   26127.73517464  .00000179  00000-0  21163-3 0  9998
2 07659  49.8151 250.2657 0185745 197.6318 161.8073 13.94073231599708
Epoch: 2026-05-07T17:38Z
TLE epoch observation values (Epoch: 2026-05-07T17:38:39.088Z)
Latitude
-0.00006°
Longitude
120.02573°
Altitude
1,043.81 km
Speed
7.266 km/s
True Right ascension
16h 41m 03s
True Declination
0° 00' 00"
Sunlit
Object was in full shadow at epoch
Visualization orbit readout
Latitude
Unknown
Longitude
Unknown
Altitude
Unknown
Speed
Unknown
Apparent Right ascension
Unknown
Apparent Declination
Unknown
Sunlit
N/A
Visualization observer readout
Local Sidereal Time
19:45:05
Azimuth
Unknown
Elevation
Unknown
Doppler factor
Unknown
Orbital elements
Apogee altitude
1,050.617 km
Perigee altitude
779.679 km
Semi-major axis
7,293.285 km
Eccentricity
0.01857
Inclination
49.8151°
RAAN
250.2657°
Arg. of periapsis
197.6318°
True anomaly
162.45747°
Mean anomaly
161.8073°
Eccentric anomaly
162.1338°
Mean motion
3.48464 °/min
Orbital period
103.31 mins
BSTAR
0.00021163
Loading maneuver chart data...
Computing Atmospheric mass density...
Loading historical data...
Loading historical data...
Loading historical data...
Loading historical data...
Loading historical data...
Loading historical data...
Loading historical data...
Other satellites on launch #10 in the year 1975 (1975-02-06 UTC)

Documentation

Showing up to 5 results
|